[[{"header":{"parameterUnit":"m.s-1","parameterCategory":1,"la1":30.2991,"la2":30.254,"lo1":-89.0895,"lo2":-89.0444,"dy":0.0017,"dx":0.0017,"nx":28,"ny":28,"refTime":"2025-05-27T09:00:00:Z","depth":0,"parameterNumber":2,"parameterNumberName":"U-component_of_WINDS"},"data":[0,0,0,0,0,0,0,0,0,0,0,0,0,0,0,0,0,0,0,0,0,0,0,0,0,0,0,0,0,0,0,0,0,0,0,0,0,0,0,0,0,0,0,0,0,0,0,0,0,0,0,0,0,0,0,0,0,0,2.4036,2.4037,0,2.4091,2.4091,2.4092,2.4093,2.4092,2.4091,2.4091,2.4142,2.4144,2.4146,0,0,0,0,0,0,0,0,0,0,0,0,0,2.3928,2.393,2.4036,2.4037,2.4038,2.409,2.4091,2.4092,2.4093,2.4092,2.4091,2.409,2.4142,2.4144,2.4146,0,0,0,0,0,0,0,0,0,0,0,0,0,2.3978,2.393,2.4036,2.4044,2.4046,2.409,2.4091,2.4092,2.4093,2.4092,2.4091,2.409,2.4141,2.4144,2.4147,2.4185,0,0,2.4156,2.4157,0,0,0,0,0,0,0,0,2.3975,2.3982,2.4043,2.4044,2.4046,2.4084,2.4072,2.4123,2.4093,2.4075,2.4091,2.4089,2.4123,2.4128,2.414,2.4188,2.419,2.4156,2.4158,2.4159,2.416,0,0,0,0,0,0,0,2.3971,2.3979,2.4058,2.4043,2.4045,2.4044,2.405,2.4082,2.4104,2.4076,2.4077,2.4083,2.4124,2.4137,2.4141,2.4191,2.4156,2.4159,2.416,2.4162,2.4269,2.427,0,0,0,0,0,0,2.3967,2.3976,2.4056,2.4059,2.4007,2.4046,2.4053,2.4072,2.4104,2.4107,2.4084,2.4083,2.4132,2.4138,2.4143,2.4188,2.4159,2.4162,2.4164,2.4268,2.4269,2.427,0,0,0,0,0,0,2.3965,2.3974,2.4054,2.4018,2.4028,2.4049,2.4071,2.4074,2.4087,2.4109,2.4113,2.4094,2.4132,2.4139,2.4174,2.419,2.4163,2.4166,2.4267,2.4268,2.427,2.4279,0,0,0,0,0,0,2.3961,2.3973,2.399,2.4018,2.403,2.4086,2.4072,2.4076,2.4093,2.4092,2.4119,2.4123,2.4132,2.417,2.4177,2.4193,2.4168,2.4265,2.4267,2.4269,2.4278,2.4281,2.4284,0,0,0,0,0,2.3958,2.399,2.399,2.4,2.4051,2.4087,2.4093,2.4104,2.4094,2.411,2.4123,2.4122,2.4187,2.4173,2.4182,2.4199,2.4264,2.4267,2.4269,2.4276,2.428,2.4284,0,0,0,0,0,0,2.3961,2.3994,2.3995,2.4038,2.406,2.4087,2.4107,2.4108,2.4132,2.413,2.4141,2.4147,2.4181,2.4194,2.4178,2.4236,2.4224,2.4228,2.4227,2.4231,2.4234,2.4229,2.4171,0,0,0,0,0,2.3967,2.3995,2.4022,2.4057,2.4068,2.4085,2.4101,2.4107,2.413,2.4139,2.4155,2.4176,2.42,2.4217,2.4241,2.428,2.4284,2.4295,2.4299,2.4301,2.4304,2.4322,2.4327,2.4278,2.4278,2.4278,0,0,2.398,2.4001,2.4018,2.4058,2.4076,2.4102,2.4093,2.4122,2.4141,2.4143,2.4177,2.419,2.4213,2.4249,2.4266,2.4261,2.4318,2.4304,2.4306,2.4307,2.4325,2.433,2.4334,2.428,2.4279,2.4279,0,0,2.4015,2.4035,2.4066,2.4083,2.411,2.4121,2.4129,2.4156,2.4164,2.4199,2.42,2.4222,2.4265,2.4281,2.4295,2.4334,2.4332,2.4342,2.4357,2.4375,2.4379,2.4382,2.4394,2.4398,2.4345,2.4345,2.4345,0,2.4027,2.4068,2.4081,2.4109,2.4125,2.4129,2.4158,2.4174,2.4207,2.4217,2.4211,2.4264,2.428,2.4319,2.4328,2.434,2.4347,2.4338,2.4378,2.4381,2.4384,2.4395,2.44,2.4345,2.4345,2.4345,2.4345,0,2.4079,2.4108,2.4129,2.4161,2.418,2.4209,2.4223,2.424,2.4244,2.4256,2.4289,2.4309,2.4336,2.4346,2.435,2.4384,2.438,2.4376,2.4363,2.439,2.44,2.4405,2.4346,2.4346,2.4346,2.4346,0,0,2.4119,2.4157,2.4164,2.4178,2.4207,2.4228,2.4256,2.4283,2.4296,2.4319,2.434,2.4376,2.4372,2.4387,2.4393,2.4409,2.4436,2.4402,2.4403,2.4406,2.4472,2.4473,2.4478,2.4435,2.4436,2.4437,2.4469,0,2.4156,2.4207,2.4217,2.426,2.4285,2.4288,2.4312,2.4331,2.4342,2.4363,2.4374,2.4398,2.4392,2.4401,2.4417,2.4429,2.4449,2.4427,2.4453,2.4454,2.4446,2.4484,2.4487,2.4516,2.4473,2.4474,2.4475,0,2.4206,2.4229,2.4275,2.4299,2.4309,2.4331,2.4355,2.4376,2.4397,2.4404,2.442,2.4424,2.445,2.4438,2.4473,2.4458,2.4469,2.4476,2.4478,2.4479,2.4465,2.4485,2.4526,2.4529,2.4482,2.4481,2.4481,0,2.4226,2.427,2.4302,2.4314,2.4343,2.4357,2.437,2.439,2.4405,2.4426,2.4435,2.4459,2.4471,2.4489,2.4497,2.4488,2.4531,2.452,2.4535,2.4534,2.4543,2.4542,2.4584,2.4553,2.4553,2.4553,2.4553,0,2.4265,2.4292,2.4311,2.4331,2.436,2.4372,2.44,2.4412,2.443,2.445,2.4454,2.4473,2.4484,2.4504,2.4511,2.4538,2.4544,2.4548,2.4549,2.4547,2.4546,2.4553,2.455,2.4554,2.4554,2.4554,2.4553,0,2.4293,2.4307,2.4342,2.4367,2.4374,2.4394,2.4414,2.4432,2.4443,2.4468,2.4475,2.4491,2.4514,2.4525,2.4554,2.4558,2.4587,2.4588,2.4581,2.4581,2.4594,2.4592,2.4641,2.4647,2.4614,2.4614,2.4615,0,2.4316,2.4337,2.4363,2.4378,2.4391,2.4414,2.443,2.4441,2.4456,2.4481,2.4495,2.4518,2.4538,2.4574,2.4587,2.4608,2.4608,2.4624,2.4612,2.4608,2.4606,2.4604,2.4605,2.4626,2.4626,2.4627,2.4627,0,2.4354,2.4359,2.4382,2.4407,2.4425,2.4444,2.4464,2.4475,2.4489,2.4505,2.453,2.4545,2.4574,2.4596,2.4618,2.4629,2.4629,2.4631,2.4635,2.4632,2.4626,2.4627,2.4585,2.4629,2.4629,2.4629,2.4629,2.4629,2.4378,2.4396,2.4417,2.4441,2.4457,2.4475,2.4492,2.4505,2.4526,2.4551,2.4556,2.4581,2.4599,2.4629,2.464,2.4658,2.4655,2.4661,2.4663,2.4664,2.4663,2.4624,2.4663,2.4663,2.4663,2.4663,2.4663,0,2.4414,2.4428,2.445,2.4477,2.4496,2.4496,2.4517,2.4532,2.4554,2.4572,2.4591,2.4617,2.4638,2.4653,2.4674,2.4686,2.4686,2.4691,2.4689,2.4691,2.4667,2.466,2.469,2.469,2.469,2.469,2.469,2.469,2.4435,2.4464,2.4473,2.4509,2.4522,2.4547,2.4559,2.4574,2.4588,2.4618,2.4636,2.4646,2.4661,2.4683,2.4702,2.4706,2.4712,2.4717,2.472,2.4696,2.4693,2.469,2.4684,2.4719,2.4719,2.4742,2.4743,2.4743]},{"header":{"parameterUnit":"m.s-1","parameterCategory":1,"la1":30.2991,"la2":30.254,"lo1":-89.0895,"lo2":-89.0444,"dy":0.0017,"dx":0.0017,"nx":28,"ny":28,"refTime":"2025-05-27T09:00:00:Z","depth":0,"parameterNumber":3,"parameterNumberName":"V-component_of_WINDS"},"data":[0,0,0,0,0,0,0,0,0,0,0,0,0,0,0,0,0,0,0,0,0,0,0,0,0,0,0,0,0,0,0,0,0,0,0,0,0,0,0,0,0,0,0,0,0,0,0,0,0,0,0,0,0,0,0,0,0,0,3.4527,3.4528,0,3.4643,3.4645,3.4646,3.4634,3.4632,3.463,3.4629,3.4745,3.475,3.4755,0,0,0,0,0,0,0,0,0,0,0,0,0,3.4291,3.4296,3.4527,3.4529,3.453,3.4643,3.4645,3.4646,3.4634,3.4632,3.463,3.4628,3.4744,3.4749,3.4755,0,0,0,0,0,0,0,0,0,0,0,0,0,3.4399,3.4297,3.4527,3.4538,3.454,3.4643,3.4645,3.4647,3.4635,3.4632,3.4629,3.4627,3.4742,3.4749,3.4756,3.4855,0,0,3.4778,3.4781,0,0,0,0,0,0,0,0,3.4393,3.4408,3.4535,3.4537,3.454,3.4621,3.4604,3.4717,3.4635,3.4599,3.4629,3.4625,3.4706,3.4716,3.4744,3.4861,3.4866,3.4779,3.4783,3.4786,3.4788,0,0,0,0,0,0,0,3.4386,3.4403,3.4573,3.4536,3.454,3.4536,3.4548,3.4626,3.4666,3.4602,3.4601,3.4615,3.4707,3.4737,3.4746,3.4867,3.4778,3.4785,3.4789,3.4792,3.5069,3.5072,0,0,0,0,0,0,3.4376,3.4397,3.4569,3.4577,3.4458,3.4542,3.4556,3.4598,3.4665,3.4673,3.4617,3.4614,3.4726,3.4738,3.4751,3.487,3.4786,3.4793,3.4797,3.5066,3.507,3.5073,0,0,0,0,0,0,3.4371,3.4392,3.4565,3.4487,3.4508,3.4549,3.4596,3.4602,3.4632,3.4677,3.4684,3.4641,3.4724,3.474,3.4829,3.4874,3.4796,3.4803,3.5063,3.5067,3.5072,3.511,0,0,0,0,0,0,3.4364,3.439,3.4429,3.4488,3.4513,3.4642,3.4599,3.4606,3.4644,3.4641,3.4701,3.4708,3.4723,3.4818,3.4836,3.4882,3.4808,3.5059,3.5065,3.507,3.5105,3.5116,3.5125,0,0,0,0,0,3.4356,3.4435,3.4431,3.4452,3.4562,3.4645,3.4659,3.4676,3.4648,3.4687,3.4716,3.4706,3.4866,3.4827,3.4847,3.4897,3.5056,3.5063,3.507,3.5101,3.5114,3.5124,0,0,0,0,0,0,3.438,3.4443,3.4439,3.454,3.4587,3.4643,3.4692,3.4689,3.4745,3.4739,3.4757,3.477,3.4859,3.4887,3.4843,3.4995,3.4957,3.4968,3.4974,3.4987,3.4996,3.4987,3.4814,0,0,0,0,0,3.4397,3.446,3.4511,3.4595,3.4619,3.4652,3.4688,3.4697,3.4746,3.4766,3.4802,3.4849,3.491,3.495,3.5008,3.5109,3.5121,3.5153,3.5162,3.517,3.5179,3.5233,3.5247,3.5096,3.5096,3.5096,0,0,3.4433,3.4475,3.4513,3.4601,3.4638,3.4702,3.4668,3.4737,3.4784,3.4776,3.4862,3.489,3.4944,3.5039,3.5082,3.5064,3.5224,3.5179,3.5185,3.519,3.5242,3.5256,3.5269,3.51,3.5099,3.5099,0,0,3.453,3.4569,3.4642,3.4681,3.4739,3.476,3.4777,3.4834,3.4852,3.4938,3.4933,3.4988,3.5093,3.5132,3.5165,3.5276,3.5269,3.5294,3.5345,3.5397,3.5409,3.542,3.5458,3.5472,3.5303,3.5304,3.5304,0,3.4567,3.4664,3.468,3.475,3.4788,3.4784,3.4857,3.4894,3.4967,3.4993,3.4972,3.5103,3.5139,3.5242,3.5269,3.5296,3.5316,3.5288,3.5406,3.5417,3.5427,3.5464,3.5479,3.5306,3.5306,3.5306,3.5305,0,3.4706,3.4772,3.4825,3.4896,3.494,3.5011,3.5037,3.5079,3.5084,3.5107,3.5194,3.5237,3.5304,3.5329,3.5334,3.5432,3.5419,3.5402,3.5364,3.5444,3.5479,3.5493,3.531,3.5309,3.5308,3.5308,0,0,3.4822,3.4901,3.492,3.4952,3.5015,3.5066,3.5137,3.5202,3.5237,3.5288,3.5347,3.5435,3.5419,3.5457,3.5466,3.5512,3.5595,3.5489,3.549,3.5506,3.5705,3.5717,3.5733,3.5591,3.5594,3.5596,3.57,0,3.4925,3.5051,3.5067,3.5178,3.5239,3.5235,3.5296,3.5341,3.5364,3.5418,3.5443,3.5505,3.548,3.5502,3.5548,3.5576,3.5635,3.5568,3.5644,3.5647,3.5631,3.5752,3.5765,3.5862,3.5714,3.5716,3.5718,0,3.5062,3.5117,3.5234,3.5287,3.5313,3.5368,3.5429,3.5482,3.5531,3.5544,3.5586,3.5589,3.566,3.562,3.5718,3.5672,3.5704,3.5722,3.5726,3.5733,3.5687,3.5762,3.5893,3.5907,3.574,3.5738,3.5737,0,3.5134,3.5237,3.532,3.5347,3.5412,3.545,3.5479,3.5526,3.5564,3.5617,3.5641,3.5702,3.5735,3.5781,3.5799,3.5768,3.5896,3.5857,3.5908,3.5907,3.5935,3.5932,3.6072,3.5956,3.5956,3.5956,3.5955,0,3.5247,3.5319,3.5353,3.5404,3.5483,3.5501,3.5579,3.5606,3.5647,3.5702,3.5703,3.5754,3.5776,3.5831,3.5846,3.5924,3.5939,3.5951,3.5954,3.595,3.5949,3.5971,3.5965,3.5959,3.5959,3.5958,3.5957,0,3.5341,3.5367,3.5457,3.5511,3.5526,3.5582,3.5627,3.5676,3.5698,3.5768,3.5785,3.5819,3.5883,3.5907,3.5985,3.5995,3.6085,3.6082,3.6068,3.6069,3.6118,3.6113,3.6277,3.6299,3.6169,3.617,3.6171,0,3.5411,3.5466,3.5526,3.5563,3.5593,3.5653,3.5692,3.5711,3.5751,3.5811,3.5852,3.5916,3.5968,3.6071,3.6102,3.6161,3.616,3.6213,3.6169,3.6164,3.616,3.6156,3.6161,3.6221,3.6223,3.6224,3.6225,0,3.5533,3.5543,3.5599,3.566,3.5706,3.5755,3.5802,3.5832,3.5858,3.5903,3.5969,3.6009,3.6089,3.6152,3.6212,3.624,3.6237,3.6238,3.6253,3.625,3.624,3.6245,3.609,3.6235,3.6234,3.6233,3.6232,3.6232,3.5617,3.5665,3.5714,3.5776,3.5814,3.5858,3.5906,3.5934,3.5989,3.6056,3.6063,3.6134,3.6181,3.6262,3.6292,3.6347,3.6332,3.6354,3.636,3.6364,3.6368,3.6231,3.6358,3.6358,3.6358,3.6358,3.6357,0,3.5738,3.5769,3.5826,3.5892,3.5941,3.5934,3.5985,3.6026,3.6088,3.6133,3.6184,3.6259,3.632,3.6356,3.6416,3.6453,3.6453,3.6468,3.6466,3.6472,3.6378,3.6359,3.6468,3.6468,3.6468,3.6467,3.6467,3.6467,3.5806,3.5887,3.5902,3.6001,3.6032,3.6101,3.6131,3.6171,3.6207,3.6291,3.6341,3.6364,3.6405,3.6469,3.6524,3.6533,3.6555,3.6571,3.6579,3.649,3.6479,3.6468,3.645,3.6576,3.6576,3.6668,3.6669,3.667]}]]